User: anonymous   Login
Location: Unspecified
(0.0000°N, 0.0000°E)
Time: 15:59:51
(UTC+00:00)
Language:

JUGNU - Orbit

View from above orbital plane
View from above orbital plane
View from above satellite
View from above satellite

Ground track
Ground track

The orbit data is extracted from the following two-line orbital elements,

1 37839U 11058B   20293.18463595  .00000325  00000-0  31335-4 0  9991
2 37839  19.9608 252.4061 0018705 312.7242 159.9343 14.12691703466416
Epoch (UTC): 19 October 2020 04:25:52
Eccentricity: 0.0018705
inclination: 19.9608°
perigee height: 836 km
apogee height: 863 km
right ascension of ascending node: 252.4061°
argument of perigee: 312.7242°
revolutions per day: 14.12691703
mean anomaly at epoch: 159.9343°
orbit number at epoch: 46641

The dashed part of the orbit path shows where the satellite is in the earth's shadow,  

DLR